Regional Weather Roundup
Issued by NWS Little Rock, AR

Home | Current Version | Previous Version | Graphics & Text | Print | Product List | Glossary On
Versions: 1 2 3 4 5 6 7 8 9 10 11 12 13 14 15 16 17 18 19 20 21 22 23 24 25 26 27 28 29 30 31 32 33 34 35 36 37 38 39 40 41 42 43 44 45 46 47
000
ASUS44 KLZK 251005
RWRLZK

WEATHER ROUNDUP FOR ARKANSAS
NATIONAL WEATHER SERVICE LITTLE ROCK AR
400 AM CST SUN JAN 25 2015

NOTE: "FAIR" INDICATES FEW OR NO CLOUDS BELOW 12,000 FEET WITH NO
SIGNIFICANT WEATHER AND/OR OBSTRUCTIONS TO VISIBILITY.

ARZ001-003-010-029-251100-
NORTHWEST ARKANSAS

CITY           SKY/WX    TMP DP  RH WIND       PRES   REMARKS
FAYETTEVILLE   CLOUDY    49  34  56 W13       29.76F
FORT SMITH     LGT RAIN  39  35  86 CALM      29.79F
HARRISON       CLOUDY    52  33  48 W14G22    29.71F
BENTONVILLE    CLOUDY    46  36  66 W6        29.76S
ROGERS         LGT RAIN  46  36  68 W13       29.74F
SILOAM SPGS    CLOUDY    45  34  65 SW8       29.78S
HIGHFILL       LGT RAIN  45  38  76 W9        29.74F
$$

ARZ004-005-016-251100-
NORTH CENTRAL ARKANSAS

CITY           SKY/WX    TMP DP  RH WIND       PRES   REMARKS
BATESVILLE     CLOUDY    48  34  57 SW12      29.76F
FLIPPIN        CLOUDY    50  30  46 SW6       29.70F
MTN HOME       CLOUDY    49  33  54 S7        29.70F
$$

ARZ040-041-251100-
WEST CENTRAL ARKANSAS

CITY           SKY/WX    TMP DP  RH WIND       PRES   REMARKS
MENA           PTCLDY    46  36  66 W5        29.84F
MOUNT IDA      CLOUDY    40  33  76 CALM      29.80F
$$

ARZ009-017-025-026-028-251100-
NORTHEAST ARKANSAS

CITY           SKY/WX    TMP DP  RH WIND       PRES   REMARKS
JONESBORO      MOCLDY    39  34  82 SW8       29.78F
NEWPORT        CLOUDY    40  34  79 S14       29.78F
WALNUT RIDGE   MOCLDY    39  30  70 S12       29.75F
BLYTHEVILLE    CLOUDY    40  34  79 S9        29.79F
$$

ARZ022-023-033-042-044-251100-
CENTRAL ARKANSAS

CITY           SKY/WX    TMP DP  RH WIND       PRES   REMARKS
LITTLE ROCK    MOCLDY    42  33  70 CALM      29.84F
N LITTLE ROCK    N/A     44  37  74 W5        29.84F
JACKSONVILLE   CLOUDY    42  35  74 SW6       29.82F
SEARCY         CLOUDY    41  34  76 SW6       29.82F
HOT SPRINGS    CLOUDY    38  33  82 CALM      29.86F
RUSSELLVILLE   CLOUDY    36  33  89 CALM      29.79F
CLINTON        FAIR      37  34  87 CALM      29.79F
$$

ARZ036-251100-
EAST ARKANSAS

CITY           SKY/WX    TMP DP  RH WIND       PRES   REMARKS
WEST MEMPHIS   MOCLDY    35  33  92 S10       29.82F WCI  27
$$

ARZ050-053-066-070-073-251100-
SOUTHWEST ARKANSAS

CITY           SKY/WX    TMP DP  RH WIND       PRES   REMARKS
ARKADELPHIA    FAIR      33  33 100 CALM      29.89F
CAMDEN         PTCLDY    36  32  87 MISG      29.91F
TEXARKANA      PTCLDY    41  35  79 SW9       29.91F
EL DORADO      CLEAR     35  32  88 S6        29.93F WCI  30
DE QUEEN       PTCLDY    29  28  96 CALM      29.88F
$$

ARZ056-057-069-251100-
SOUTHEAST ARKANSAS

CITY           SKY/WX    TMP DP  RH WIND       PRES   REMARKS
PINE BLUFF     MOCLDY    42  34  73 SW13      29.87F
STUTTGART      MOCLDY    43  36  75 SW15      29.85F
MONTICELLO     CLEAR     43  34  70 SW8       29.90F

$$





USA.gov is the U.S. government's official web portal to all federal, state and local government web resources and services.